Regional Weather Roundup
Issued by NWS Sioux Falls, SD

Home | Current Version | Previous Version | Text Only | Print | Product List | Glossary On
Versions: 1 2 3 4 5 6 7 8 9 10 11 12 13 14 15 16 17 18 19 20 21 22 23 24 25 26 27 28 29 30 31 32 33 34 35 36 37 38 39 40 41 42 43 44 45 46 47 48 49 50
000
ASUS43 KFSD 060402
RWRFSD

WEATHER ROUNDUP FOR SE SOUTH DAKOTA/SW MINNESOTA/NW IOWA
NATIONAL WEATHER SERVICE SIOUX FALLS SD
1100 PM CDT THU MAY 05 2016

NOTE: "FAIR" INDICATES FEW OR NO CLOUDS BELOW 12,000 FEET WITH NO
SIGNIFICANT WEATHER AND OR OBSTRUCTIONS TO VISIBILITY.


SDZ038>040-050-052>070-060500-
SOUTHEAST SOUTH DAKOTA

CITY           SKY/WX    TMP DP  RH WIND       PRES   REMARKS
BROOKINGS      CLEAR     64  45  49 S13       29.92R
CHAMBERLAIN    NOT AVBL
HURON          CLEAR     67  46  47 S12       29.86R
MADISON        FAIR      63  46  55 S13       29.93S
MITCHELL       CLEAR     64  48  56 S10       29.89R
SIOUX FALLS    CLEAR     65  44  46 S13       29.93S
WINNER         LGT RAIN  74  46  36 S24       29.86R
YANKTON        CLEAR     66  39  37 S13       29.92S
$$

MNZ071-072-080-081-089-090-097-098-060500-
SOUTHWEST MINNESOTA

CITY           SKY/WX    TMP DP  RH WIND       PRES   REMARKS
FAIRMONT       CLEAR     63  39  42 SW8       29.95R
JACKSON        PTCLDY    61  41  48 SW8       29.97S
LUVERNE        CLEAR     55  41  58 S6        29.96S
MARSHALL       CLEAR     63  44  50 S10       29.91S
MONTEVIDEO     CLEAR     63  45  51 SW7       29.92R
PIPESTONE      CLEAR     57  45  62 SW8       29.95S
REDWOOD FALLS  CLEAR     62  41  46 S8        29.91S
TRACY          CLEAR     66  43  42 SW14      29.93R
WINDOM         PTCLDY    63  43  48 CALM      29.94F
WORTHINGTON    CLEAR     64  43  46 SW13      29.96S
$$

IAZ001>003-012>014-020>022-031-032-NEZ013-014-SDZ071-060500-
NORTHWEST IOWA

CITY           SKY/WX    TMP DP  RH WIND       PRES   REMARKS
DENISON        CLEAR     61  43  51 CALM      29.98S
ESTHERVILLE    CLEAR     60  42  51 SW9       29.96S
SIOUX CITY     CLEAR     58  45  62 SE6       29.97S
SPENCER        CLEAR     61  40  45 SW6       29.97S
STORM LAKE     CLEAR     61  41  48 SW7       29.99S
$$

ABBREVIATIONS USED IN REMARKS
   TC - TEMPERATURE IN CELSIUS
  WCI - WIND CHILL INDEX
   HX - HEAT INDEX
  VSB - VISIBILITY





USA.gov is the U.S. government's official web portal to all federal, state and local government web resources and services.